Location: *
(43.0167°S, 179.9000°E)
Time: 11:30:37
(UTC+00:00)

ATLAS 3B R/B - Pass Details

Date: 12 August 2024
Orbit: 940 x 1254 km, 63.8° (Epoch: 12 September)

Event Time Altitude Azimuth Distance (km) Brightness Sun altitude
Exits shadow 15:35:09 26° 38° (NE) 1,951 4.2 -37.2°
Maximum altitude 15:37:07 31° 67° (ENE) 1,767 4.1 -36.8°
Drops below altitude 10° 15:42:43 10° 126° (SE) 2,795 5.6 -35.8°
Sets 15:45:32 0° 135° (SE) 3,714 6.3 -35.3°
